Tracking 19638 objects as of 19-Apr-2019
HD Live streaming from Space Station
objects crossing your sky now

THORAD AGENA D DEB

Track THORAD AGENA D DEB now!
10-day predictions


NORAD ID: 4686
Int'l Code: 1970-025BK
Perigee: 1,030.2 km
Apogee: 1,085.8 km
Inclination: 100.3 °
Period: 106.2 minutes
Semi major axis: 7429 km
RCS: 0.051 m2 (small)
Launch date: April 8, 1970
Source: United States (US)
Launch site: AIR FORCE WESTERN TEST RANGE (AFWTR)

Note: This is SATELLITE DEBRIS
aabbcc
Your satellite tracking list
Your tracking list is empty




NASA's NSSDC Master Catalog

Two Line Element Set (TLE):
1  4686U 70025BK  19108.85136337 +.00000021 +00000-0 +99208-4 0  9998
2  4686 100.2553 066.2032 0037423 064.0914 350.1363 13.55831768415978
Source of the keplerian elements: AFSPC